Location: Peterborough
(44.3091°N, 78.3197°W)
Time: 19:28:37
(UTC-04:00)

Vanguard 2 Rocket - Pass Details

Date: 22 March 2023
Orbit: 554 x 3314 km, 32.9° (Epoch: 06 June)

Event Time Altitude Azimuth Distance (km) Brightness Sun altitude
Rises 00:27:39 0° 262° (W) 4,911 10.7 -43.7°
Reaches altitude 10° 00:30:29 10° 257° (WSW) 4,233 10.3 -43.8°
Enters shadow 00:33:13 21° 250° (WSW) 3,683 9.8 -44.0°
Exits shadow 01:04:21 - 116° (ESE) 7,047 11.2 -45.0°
Sets 01:05:34 0° 115° (ESE) 7,296 11.3 -45.0°
